Chehalis, WA
on Tuesday, January 29, 2013

Tuesday
Previous Day Next Day
Daily Summary
 ActualAverage (KOLM)Record (KOLM)
Temperature
Mean Temperature °F 40°F  
Max Temperature 48°F 47°F 57°F (1960)
Min Temperature 42°F 34°F 0°F (1972)
Degree Days
Heating Degree Days 20 25  
Month to date heating degree days 735  
Since 1 July heating degree days 3005  
Cooling Degree Days 0 0  
Month to date cooling degree days 0  
Year to date cooling degree days 0  
Moisture
Dew Point 43°F   
Average Humidity 91    
Maximum Humidity 100    
Minimum Humidity 87    
Precipitation
Precipitation 0.11 in 0.23 in 2.23 in (2006)
Month to date precipitation 7.37  
Year to date precipitation 7.37  
Wind
Wind Speed 6 mph   
Max Wind Speed 9 mph   
Max Gust Speed 16 mph   
Visibility 6 miles   
Events Rain   

Key: T is trace of precipitation, MM is missing value
Source: NWS Daily Summary
Time(PST)TemperatureDew PointHumidity Pressure Visibility Wind DirectionWind SpeedGust SpeedPrecipitationEvents Conditions
12:15 AM 42.8°F 41.0°F 93% 30.17 in 5.0 miles South 5.8 mph - 0.01 in Rain Light Rain
12:35 AM 42.8°F 41.0°F 93% 30.18 in 7.0 miles South 5.8 mph - 0.01 in Rain Light Rain
12:55 AM 42.8°F 41.0°F 93% 30.18 in 7.0 miles South 4.6 mph - 0.01 in   Overcast
1:15 AM 42.8°F 41.0°F 93% 30.18 in 6.0 miles SSW 4.6 mph - N/A   Overcast
1:35 AM 44.6°F 41.0°F 87% 30.18 in 7.0 miles South 4.6 mph - N/A Rain Light Rain
1:55 AM 44.6°F 41.0°F 87% 30.19 in 4.0 miles South 4.6 mph - N/A Rain Light Rain
2:15 AM 44.6°F 42.8°F 93% 30.19 in 5.0 miles South 5.8 mph - N/A Rain Light Rain
2:35 AM 44.6°F 42.8°F 93% 30.20 in 5.0 miles South 4.6 mph - 0.01 in Rain Light Rain
2:55 AM 44.6°F 42.8°F 93% 30.20 in 5.0 miles South 5.8 mph - 0.03 in Rain Light Rain
3:15 AM 44.6°F 42.8°F 93% 30.21 in 5.0 miles South 5.8 mph - N/A   Overcast
3:35 AM 44.6°F 42.8°F 93% 30.21 in 6.0 miles South 6.9 mph - N/A   Overcast
3:55 AM 44.6°F 42.8°F 93% 30.21 in 5.0 miles South 5.8 mph - 0.02 in Rain Light Rain
4:15 AM 44.6°F 42.8°F 93% 30.21 in 6.0 miles South 5.8 mph - 0.01 in   Overcast
4:35 AM 44.6°F 42.8°F 93% 30.22 in 9.0 miles South 6.9 mph - 0.02 in Rain Light Rain
4:55 AM 44.6°F 42.8°F 93% 30.23 in 10.0 miles South 6.9 mph - 0.02 in   Overcast
5:15 AM 44.6°F 42.8°F 93% 30.23 in 7.0 miles SSW 5.8 mph - N/A Rain Light Rain
5:35 AM 44.6°F 42.8°F 93% 30.24 in 7.0 miles WSW 3.5 mph - N/A   Overcast
5:55 AM 44.6°F 42.8°F 93% 30.24 in 2.5 miles SSW 3.5 mph - 0.01 in   Overcast
6:15 AM 44.6°F 42.8°F 93% 30.24 in 10.0 miles SW 4.6 mph - N/A   Overcast
6:35 AM 44.6°F 42.8°F 93% 30.25 in 9.0 miles SW 4.6 mph - N/A   Overcast
6:55 AM 44.6°F 42.8°F 93% 30.26 in 8.0 miles SSW 3.5 mph - N/A   Overcast
7:15 AM 44.6°F 42.8°F 93% 30.26 in 8.0 miles South 4.6 mph - N/A Rain Light Rain
7:35 AM 44.6°F 44.6°F 100% 30.27 in 10.0 miles SW 4.6 mph - N/A   Overcast
7:55 AM 44.6°F 44.6°F 100% 30.27 in 7.0 miles SW 5.8 mph - N/A   Overcast
8:15 AM 44.6°F 44.6°F 100% 30.28 in 5.0 miles SW 3.5 mph - N/A   Overcast
8:35 AM 44.6°F 44.6°F 100% 30.29 in 5.0 miles SSW 5.8 mph - N/A   Overcast
8:55 AM 44.6°F 44.6°F 100% 30.30 in 5.0 miles SSW 3.5 mph - N/A   Overcast
9:15 AM 46.4°F 44.6°F 93% 30.31 in 5.0 miles SSW 4.6 mph - N/A   Overcast
9:35 AM 46.4°F 44.6°F 93% 30.32 in 4.0 miles SW 3.5 mph - N/A   Mostly Cloudy
9:55 AM 46.4°F 44.6°F 93% 30.32 in 5.0 miles SW 4.6 mph - N/A   Overcast
10:15 AM 46.4°F 44.6°F 93% 30.33 in 5.0 miles SW 5.8 mph - N/A   Overcast
10:35 AM 46.4°F 44.6°F 93% 30.34 in 5.0 miles SW 5.8 mph - N/A   Overcast
10:55 AM 46.4°F 44.6°F 93% 30.35 in 5.0 miles SW 6.9 mph - N/A   Mostly Cloudy
11:15 AM 46.4°F 44.6°F 93% 30.35 in 5.0 miles SSW 8.1 mph - N/A   Overcast
11:35 AM 48.2°F 44.6°F 87% 30.36 in 5.0 miles SW 8.1 mph - N/A   Overcast
11:55 AM 48.2°F 44.6°F 87% 30.36 in 5.0 miles SW 8.1 mph - N/A   Overcast
12:15 PM 48.2°F 44.6°F 87% 30.37 in 4.0 miles WSW 6.9 mph - N/A   Mostly Cloudy
12:35 PM 48.2°F 44.6°F 87% 30.37 in 7.0 miles SW 6.9 mph - N/A   Mostly Cloudy
12:55 PM 48.2°F 44.6°F 87% 30.37 in 3.0 miles WSW 8.1 mph - N/A   Mostly Cloudy
1:15 PM 48.2°F 44.6°F 87% 30.37 in 5.0 miles WSW 8.1 mph - N/A   Mostly Cloudy
1:35 PM 48.2°F 44.6°F 87% 30.37 in 5.0 miles WSW 8.1 mph - N/A   Overcast
1:55 PM 48.2°F 44.6°F 87% 30.37 in 5.0 miles SW 8.1 mph - N/A   Overcast
2:15 PM 48.2°F 44.6°F 87% 30.38 in 5.0 miles WSW 8.1 mph - N/A   Overcast
2:35 PM 48.2°F 44.6°F 87% 30.38 in 6.0 miles West 8.1 mph - N/A   Haze
2:55 PM 48.2°F 44.6°F 87% 30.39 in 4.0 miles SW 5.8 mph - N/A   Overcast
3:15 PM 48.2°F 44.6°F 87% 30.39 in 5.0 miles SW 5.8 mph - N/A   Overcast
3:35 PM 48.2°F 44.6°F 87% 30.40 in 5.0 miles SW 5.8 mph - N/A   Overcast
3:55 PM 48.2°F 44.6°F 87% 30.40 in 9.0 miles SW 6.9 mph - N/A   Overcast
4:15 PM 48.2°F 44.6°F 87% 30.41 in 10.0 miles SW 6.9 mph - N/A   Overcast
4:35 PM 48.2°F 44.6°F 87% 30.41 in 10.0 miles SSW 8.1 mph - N/A   Overcast
4:55 PM 46.4°F 44.6°F 93% 30.41 in 10.0 miles SSW 5.8 mph - N/A   Overcast
5:15 PM 46.4°F 44.6°F 93% 30.41 in 3.0 miles SSW 4.6 mph - N/A   Overcast
5:35 PM 46.4°F 44.6°F 93% 30.42 in 2.0 miles SSW 4.6 mph - N/A Rain Light Rain
5:55 PM 46.4°F 44.6°F 93% 30.42 in 5.0 miles SSW 6.9 mph - N/A Rain Light Rain
6:15 PM 46.4°F 44.6°F 93% 30.42 in 7.0 miles SW 6.9 mph - N/A   Overcast
6:35 PM 46.4°F 44.6°F 93% 30.42 in 2.5 miles SW 3.5 mph - N/A Rain Light Rain
6:55 PM 46.4°F 44.6°F 93% 30.43 in 9.0 miles WSW 6.9 mph - N/A   Overcast
7:15 PM 46.4°F 42.8°F 87% 30.43 in 8.0 miles SW 6.9 mph 16.1 mph N/A   Overcast
7:35 PM 46.4°F 42.8°F 87% 30.43 in 7.0 miles SSW 3.5 mph - N/A   Overcast
7:55 PM 46.4°F 44.6°F 93% 30.43 in 7.0 miles SSW 4.6 mph - N/A   Overcast
8:15 PM 46.4°F 42.8°F 87% 30.44 in 7.0 miles SW 3.5 mph - N/A   Overcast
8:35 PM 46.4°F 42.8°F 87% 30.42 in 6.0 miles SSW 5.8 mph - N/A   Overcast
8:55 PM 44.6°F 41.0°F 87% 30.42 in 10.0 miles South 4.6 mph - N/A   Mostly Cloudy
9:15 PM 44.6°F 41.0°F 87% 30.42 in 10.0 miles South 5.8 mph - N/A   Overcast
9:35 PM 44.6°F 41.0°F 87% 30.41 in 10.0 miles South 5.8 mph - N/A   Overcast
9:55 PM 44.6°F 41.0°F 87% 30.39 in 7.0 miles South 8.1 mph - N/A   Overcast
10:15 PM 44.6°F 42.8°F 93% 30.40 in 10.0 miles South 3.5 mph - N/A   Overcast
10:35 PM 44.6°F 42.8°F 93% 30.40 in 6.0 miles South 5.8 mph - 0.01 in Rain Light Rain
10:55 PM 44.6°F 42.8°F 93% 30.39 in 5.0 miles South 9.2 mph - 0.01 in Rain Light Rain
11:15 PM 44.6°F 42.8°F 93% 30.39 in 8.0 miles South 6.9 mph - N/A   Overcast
11:35 PM 44.6°F 42.8°F 93% 30.40 in 5.0 miles SSW 3.5 mph - N/A Rain Light Rain
11:55 PM 44.6°F 42.8°F 93% 30.40 in 10.0 miles SSW 3.5 mph - 0.01 in   Overcast
Moon Phase
Jan. 29 Feb. 03 Feb. 10 Feb. 17 Feb. 25
Sunrise:07:39 AM (PST) Moon Rise:08:28 PM (PST)1/29
Sunset:05:11 PM (PST) Moon Set:08:25 AM (PST)1/29

Copyright © 2014 The Weather Underground, Inc.